RH
75 68 74 90 93 94 84 71 58 55 53 48 40 53 69 79 78 80 94 86 82 85 86 80 80 75 74 74 74 74 73 72 74 77 77 76 77 76 75 75 75 75 73 71 73 72 71 72 75
74 70 91 96 93 88 87 66 62 51 47 39 50 60 75 92 82 92 92 84 83 87 90 86 82 78 76 77 78 75 73 73 76 77 78 78 77 77 76 74 73 74 73 72 72 71 70 69 70
71 77 93 95 93 89 88 67 59 50 42 43 65 66 74 84 76 80 87 84 89 96 92 87 79 76 74 74 76 75 75 74 76 76 75 75 76 76 75 75 74 73 74 71 70 70 70 71 70
85 96 97 96 88 75 69 61 50 49 42 60 67 83 78 65 75 85 83 86 94 96 88 78 75 72 72 72 71 72 75 73 75 74 74 74 74 73 74 73 73 71 71 71 71 69 69 69 70
93 95 93 92 82 67 55 47 43 50 57 60 61 84 91 83 79 83 86 88 94 96 88 83 79 76 77 74 71 71 71 75 73 73 73 73 74 73 73 72 70 70 71 71 70 71 69 69 71
96 94 92 88 72 63 55 50 58 64 65 64 67 77 93 84 86 85 85 93 92 93 90 84 77 76 76 73 73 75 72 72 74 74 73 74 75 75 75 72 71 69 69 69 70 69 72 70 70
95 93 94 84 74 67 62 55 62 63 64 66 57 94 88 90 82 82 89 94 91 92 92 90 86 78 74 73 71 73 71 73 72 73 74 74 73 73 73 73 71 69 68 68 68 70 73 75 73
88 95 91 84 78 75 59 62 66 59 67 52 56 92 92 86 80 87 92 96 97 95 93 94 92 88 88 84 73 73 75 72 72 73 74 72 72 74 76 78 74 68 67 67 69 70 70 72 72
80 96 97 90 92 83 61 62 57 52 55 55 55 68 73 81 85 93 98 97 98 94 96 96 95 94 91 86 79 76 73 74 74 76 76 87 91 87 83 75 71 68 67 67 68 68 68 69 71
82 90 87 78 78 80 66 57 58 56 62 67 75 73 79 86 88 91 86 88 90 97 98 96 96 94 91 83 94 94 91 92 94 92 92 93 93 88 81 78 70 68 68 66 66 66 65 71 74
74 79 67 66 65 67 64 60 54 63 72 61 83 88 87 87 88 91 90 86 92 94 96 97 97 96 95 96 98 98 96 92 94 92 94 91 90 92 95 96 94 91 78 82 77 78 76 77 82
75 59 57 58 65 68 71 60 64 67 70 56 69 78 82 85 88 87 91 94 96 97 95 96 95 96 97 98 98 97 97 94 91 92 90 92 91 92 92 89 94 93 86 86 84 81 85 78 76
66 51 57 65 63 65 60 69 75 77 67 57 68 73 78 78 81 81 83 83 92 96 95 96 96 96 97 97 98 96 96 96 89 91 88 92 89 89 88 91 87 88 88 87 83 87 86 72 65
44 64 67 67 69 72 68 90 85 78 64 63 69 74 72 73 77 79 80 86 90 89 94 94 94 94 95 96 94 96 96 94 93 91 89 87 87 89 92 89 84 92 88 84 86 89 86 77 69
67 80 73 74 80 86 81 97 91 68 59 66 68 68 67 68 71 74 74 81 84 88 91 94 90 88 92 93 92 94 95 89 90 91 87 84 86 87 86 92 85 90 84 81 85 82 79 77 67
78 77 83 77 80 80 79 95 79 68 66 69 63 65 66 67 67 68 70 80 82 88 93 91 74 79 89 91 94 93 94 94 94 94 87 82 83 85 86 86 86 85 87 84 81 83 81 76 74
52 87 86 78 75 79 77 92 75 67 68 68 68 65 64 67 70 71 69 74 81 87 90 89 82 81 81 90 95 94 92 94 95 94 94 83 82 81 87 86 87 85 85 83 81 83 83 79 72
46 73 81 74 77 79 79 88 82 66 66 70 77 64 64 66 71 72 71 72 79 86 88 86 84 84 89 95 95 96 95 93 95 96 94 87 89 84 88 88 86 83 88 80 84 84 81 81 78
26 28 42 84 70 78 89 93 84 83 70 72 72 62 62 64 67 70 71 74 79 85 89 88 89 91 96 98 95 96 96 94 95 95 89 89 89 85 91 89 86 83 84 83 83 83 84 78 79
27 29 86 84 80 83 89 91 95 83 74 68 75 85 61 63 74 76 74 76 80 84 86 91 89 94 93 93 94 95 95 95 92 94 90 89 88 85 86 88 85 84 85 83 84 88 85 81 81
28 27 83 83 83 81 81 90 90 88 89 73 80 81 78 67 70 72 73 76 77 82 86 88 90 92 92 92 97 98 97 97 96 94 94 90 87 82 84 86 86 87 88 83 84 84 87 84 84
35 19 37 82 81 90 82 90 92 95 95 86 79 81 88 82 70 71 71 73 73 76 80 86 90 92 90 96 93 91 95 96 96 91 91 90 87 86 84 85 85 89 88 87 86 86 86 87 87
24 33 37 71 85 85 85 83 78 94 98 95 77 79 86 75 69 66 68 68 67 68 75 81 90 91 91 95 92 91 94 94 94 96 92 94 91 86 83 88 86 89 90 87 86 83 89 91 86
53 60 74 83 86 85 77 74 87 92 86 87 76 71 82 80 75 71 71 73 68 66 74 82 90 92 93 94 92 94 92 93 96 94 95 95 95 90 87 85 88 87 87 85 90 85 86 90 88
66 75 91 91 93 87 87 88 84 93 80 80 75 71 73 83 82 76 72 67 65 75 80 82 89 93 93 92 91 91 93 92 92 92 94 96 94 94 91 89 92 91 86 84 88 87 85 86 84
65 60 74 77 87 76 90 90 86 95 92 76 71 63 72 91 86 81 79 70 66 76 82 82 91 93 94 93 93 92 91 94 96 94 92 94 95 92 88 91 89 86 85 86 88 86 84 88 84
54 61 48 64 71 85 92 92 92 89 94 88 75 74 86 84 84 82 82 85 74 74 83 84 90 92 94 92 94 94 94 92 92 93 91 94 93 87 87 88 90 89 88 88 90 85 85 85 85
37 36 44 54 65 65 95 94 94 96 96 93 93 88 88 89 86 86 87 90 87 81 82 86 92 93 94 93 94 96 93 91 92 94 95 93 93 90 90 90 90 90 89 89 92 90 86 86 85
36 41 43 43 56 66 86 89 92 90 86 88 86 95 96 92 88 87 90 94 95 95 90 94 94 96 97 96 94 95 96 93 92 92 95 94 92 93 92 93 91 91 90 88 92 92 87 86 86
37 47 43 46 56 87 82 88 88 87 83 81 87 88 98 96 94 95 94 95 96 98 98 97 98 96 97 96 95 94 92 92 96 95 92 95 96 94 93 91 88 90 90 89 89 88 83 88 86
Wind_Speed
2 3 1 1 1 1 1 3 3 12 8 5 13 4 5 5 2 3 3 4 11 8 6 7 11 11 11 10 10 10 9 9 9 10 11 10 11 11 11 13 14 14 16 17 15 15 15 15 15
3 2 2 0 0 2 2 3 8 7 10 20 5 6 5 5 5 10 6 8 10 9 6 5 10 12 11 10 8 9 9 8 10 9 10 10 12 12 12 12 15 15 15 15 15 14 15 14 12
4 7 2 3 1 2 4 3 6 10 15 11 5 7 4 4 12 9 6 11 9 7 6 7 12 12 11 9 9 9 8 8 9 8 8 10 11 12 12 12 15 14 14 13 13 12 11 10 10
3 2 1 2 1 2 4 7 15 13 11 6 11 9 6 10 5 6 10 10 10 7 6 10 12 12 12 11 9 8 8 8 8 7 8 8 9 11 11 12 13 13 13 11 11 11 9 6 8
2 0 2 2 2 2 6 11 13 14 4 7 2 5 7 3 13 13 11 9 10 6 5 6 11 12 10 10 10 10 9 7 9 8 7 8 8 11 11 11 12 11 10 10 9 8 7 8 8
0 1 2 1 2 5 5 5 5 6 8 9 9 8 4 10 14 10 9 7 5 6 5 5 10 11 11 10 9 10 10 9 7 8 7 8 7 10 11 11 11 10 9 8 8 7 7 6 7
2 2 4 4 6 5 3 5 7 7 10 6 7 6 7 6 8 9 8 7 5 4 5 5 5 8 12 11 10 7 10 8 10 9 8 8 8 8 8 10 9 10 9 8 8 8 9 10 9
3 3 5 5 2 4 3 4 9 2 4 5 8 7 9 7 10 10 9 7 6 4 4 4 5 5 5 4 10 10 10 9 11 10 8 8 7 7 9 10 9 9 7 7 7 7 7 8 4
5 4 1 4 2 3 3 5 6 8 7 2 3 8 12 16 14 11 10 6 5 4 3 4 4 5 4 5 6 9 10 10 10 9 10 7 4 5 7 7 9 9 8 7 7 5 5 5 5
3 3 8 6 11 8 4 10 5 7 3 7 13 17 17 16 13 13 13 11 10 6 4 4 4 3 3 4 5 5 5 4 4 5 5 3 4 3 4 5 8 8 7 7 6 4 2 2 1
4 4 6 8 11 10 6 8 6 10 2 12 21 19 16 14 11 12 11 11 10 6 3 4 4 3 4 4 3 2 2 2 3 4 4 4 3 3 3 2 3 3 7 3 4 3 2 3 2
3 6 5 5 9 11 5 10 8 2 1 12 19 20 16 15 10 10 9 8 7 6 5 5 4 4 4 3 3 3 3 2 2 2 3 3 2 2 3 3 3 3 3 3 2 3 4 4 4
3 3 6 5 12 9 8 8 7 5 6 13 16 16 15 13 10 7 7 7 7 6 6 6 5 5 4 5 3 2 3 2 2 2 1 2 2 2 2 3 3 3 3 2 2 2 3 2 3
2 4 6 6 10 5 12 8 12 12 10 17 17 16 14 14 13 8 8 8 8 6 7 6 5 5 5 4 4 2 2 2 2 2 1 2 2 2 2 1 2 2 2 2 2 3 3 3 3
3 6 6 4 6 6 17 8 14 6 13 16 14 13 14 12 11 11 11 10 11 6 7 7 6 5 5 5 3 3 2 2 2 3 4 3 2 3 1 1 1 1 1 3 3 3 2 2 2
4 3 5 2 4 7 1 5 14 8 15 17 16 12 12 12 12 8 9 8 8 7 9 6 7 6 5 5 3 2 2 1 1 1 3 4 3 2 2 1 1 1 2 2 2 1 1 1 0
6 2 2 2 3 7 3 4 5 9 18 15 15 13 12 8 7 7 9 9 9 9 8 8 6 7 6 5 3 2 2 1 1 1 3 3 3 3 2 2 1 1 2 3 3 2 2 2 1
4 2 1 3 5 2 2 3 7 12 14 13 13 11 10 10 12 11 10 9 8 7 6 7 5 6 5 4 3 3 1 1 1 2 3 4 3 3 3 2 2 2 3 3 3 2 2 1 2
3 2 1 2 6 4 3 4 9 8 12 8 7 13 10 14 10 10 11 9 9 7 7 7 8 7 5 3 3 2 2 1 1 2 4 4 3 3 4 3 2 1 3 2 3 2 3 2 3
2 1 2 2 2 4 5 6 1 8 15 15 6 2 11 9 8 10 11 9 9 10 8 6 8 9 6 3 3 3 3 2 1 1 2 3 3 4 4 4 3 1 2 3 3 4 2 2 3
2 5 4 3 7 6 4 3 4 3 3 12 9 5 6 7 12 12 13 12 9 9 10 9 10 10 7 5 3 3 3 3 2 1 1 3 4 4 3 4 4 3 1 1 2 2 4 2 2
3 6 6 10 4 3 2 4 4 9 6 12 17 11 3 8 5 8 12 12 13 11 8 7 6 9 6 6 5 5 4 4 3 3 2 2 4 4 4 3 3 3 2 2 0 1 2 2 3
5 3 8 6 5 5 2 2 2 9 10 13 18 15 9 5 7 11 12 15 12 11 10 9 6 6 6 6 5 5 4 2 2 2 5 3 2 2 3 4 4 3 2 2 2 1 4 2 2
9 10 9 6 4 1 4 3 3 7 12 13 15 17 14 2 4 5 2 4 5 5 6 7 8 6 7 6 6 6 6 5 3 3 3 3 2 1 2 3 3 3 2 2 1 2 4 3 3
5 6 4 3 1 6 2 4 5 5 5 15 20 19 18 6 2 2 7 7 7 7 7 7 10 7 6 7 6 6 6 6 6 4 4 4 2 2 3 4 4 2 2 3 2 1 3 2 2
8 9 7 6 5 3 3 5 4 2 4 7 15 20 13 8 2 2 2 4 6 7 6 6 9 7 7 6 6 4 6 3 3 4 3 4 3 3 4 4 4 3 3 3 3 1 0 2 2
6 4 6 8 3 4 3 1 3 5 5 6 12 16 15 13 6 4 3 1 4 7 8 6 5 6 7 6 5 5 4 5 4 4 3 3 3 3 3 4 4 4 4 4 3 2 2 1 1
6 6 4 3 6 4 3 3 4 7 8 8 9 13 12 11 9 3 3 3 0 4 6 7 7 7 5 5 5 5 4 4 3 3 5 5 4 3 4 4 4 5 4 4 4 2 1 2 1
3 1 6 6 4 7 4 5 1 6 8 10 9 8 9 9 9 8 5 4 2 2 4 6 8 9 7 5 4 5 4 4 4 4 4 4 3 4 4 4 4 5 5 5 4 4 3 3 2
2 2 4 6 4 2 3 4 3 6 7 11 8 8 4 5 4 4 1 7 8 4 4 4 5 7 5 5 5 3 2 1 4 5 5 5 5 4 5 4 3 4 5 5 5 5 4 5 4
Wind_Direction
128 145 197 133 10 84 64 111 107 112 145 156 162 158 116 54 58 168 136 169 124 129 131 135 131 123 118 117 116 113 103 101 99 101 103 107 102 100 101 98 99 98 94 94 92 96 94 88 97
132 211 209 43 105 108 4 104 123 146 138 143 150 94 54 73 78 119 127 142 126 125 121 122 131 128 125 120 113 115 115 105 101 99 99 103 109 101 103 101 97 98 100 98 96 93 93 93 93
103 38 48 60 328 93 137 123 135 119 136 156 101 52 82 71 114 133 129 128 116 109 117 142 136 127 127 124 125 123 120 113 107 104 101 100 99 98 96 102 102 102 100 97 93 91 94 101 101
61 14 111 14 304 28 143 139 126 130 142 62 115 79 70 109 127 131 134 124 114 114 125 138 143 138 142 138 138 137 126 126 111 110 113 109 110 101 95 96 93 101 101 96 89 86 88 122 142
69 149 55 322 359 27 81 121 125 129 103 124 95 87 96 36 113 125 126 124 124 120 132 141 145 141 137 134 141 146 140 127 132 117 120 116 110 103 104 96 98 103 108 105 96 85 90 91 120
127 219 36 140 63 69 57 76 104 84 91 104 95 97 60 128 123 132 122 113 106 125 126 125 136 138 135 140 136 139 142 139 128 125 128 117 102 83 85 100 101 107 105 101 92 76 66 135 127
29 81 8 316 104 78 63 45 38 109 110 100 125 88 120 128 131 115 107 100 98 99 124 130 130 136 138 138 139 143 142 144 146 135 113 108 98 87 91 95 101 100 109 108 91 72 62 93 117
79 64 10 19 91 79 70 62 78 65 33 93 141 134 150 158 126 112 99 93 95 92 92 95 108 102 113 127 132 134 132 132 139 129 122 109 102 91 94 88 95 100 105 100 86 75 75 67 88
131 103 136 99 65 281 144 114 164 101 133 49 96 115 125 131 126 119 116 107 104 116 104 100 99 98 103 133 133 127 127 130 122 126 106 69 49 48 51 93 97 98 100 101 96 90 85 71 69
137 125 191 189 168 188 156 124 129 125 120 91 88 102 127 133 141 141 153 156 163 158 142 129 120 121 109 83 78 65 72 69 76 84 86 77 62 61 55 51 83 92 87 87 88 77 65 75 32
172 195 158 195 166 178 148 115 104 150 116 162 139 139 141 143 150 153 162 167 172 164 150 150 140 140 111 97 86 78 79 82 84 98 97 87 71 43 57 55 46 30 45 28 18 1 325 297 260
165 230 152 165 160 176 163 126 118 128 37 153 142 147 147 156 159 164 163 161 160 159 154 150 162 146 127 112 105 108 103 92 99 90 91 88 74 50 38 41 25 26 19 17 8 356 322 311 280
228 223 171 145 175 178 144 123 98 101 226 134 141 150 153 155 158 168 159 155 154 161 153 166 163 148 148 119 109 106 113 115 135 123 122 98 96 75 44 22 17 18 17 20 8 331 323 4 10
217 147 101 115 146 133 145 103 121 215 197 149 158 160 163 164 167 157 160 151 165 160 169 158 157 155 148 127 123 131 139 148 151 149 131 166 131 140 123 350 349 13 337 360 9 352 11 28 54
86 91 98 90 117 98 99 131 201 188 183 162 169 168 166 174 165 180 170 164 164 171 160 162 159 155 149 133 128 141 133 127 180 161 142 177 194 189 189 235 307 289 9 348 360 357 16 36 49
76 62 139 185 134 172 187 184 209 172 175 173 172 171 174 180 174 174 171 160 163 155 167 156 170 168 156 160 147 141 100 123 98 134 151 184 238 208 194 234 273 346 35 353 6 347 63 58 22
20 172 84 152 236 153 222 145 167 155 166 175 159 185 180 165 150 165 172 157 164 166 165 170 166 175 158 163 134 107 92 95 119 152 170 193 190 173 158 137 135 68 41 20 2 331 23 13 4
180 109 99 148 190 120 65 101 139 163 169 177 171 203 174 173 183 170 159 157 154 157 165 171 158 160 153 128 116 108 94 3 314 152 158 153 179 151 128 112 98 77 62 20 1 357 6 10 354
121 89 270 26 163 100 128 104 165 153 160 166 164 192 199 192 176 162 153 153 152 155 169 175 152 157 149 141 133 129 168 182 225 172 151 173 170 147 136 127 88 105 95 61 2 345 19 14 7
136 101 97 100 69 96 160 92 236 170 185 181 148 37 219 187 148 160 159 157 167 168 186 189 162 166 170 160 156 148 146 174 145 120 168 198 174 191 152 141 149 126 92 53 38 38 354 8 16
190 167 172 146 105 57 116 81 168 222 199 183 149 186 308 193 175 168 174 168 170 179 188 194 176 173 173 171 122 86 96 89 100 139 221 191 178 197 181 166 153 129 88 102 68 58 52 5 17
206 194 154 143 112 166 32 205 239 159 178 186 181 194 244 322 216 180 171 181 179 193 184 182 196 168 173 172 164 157 160 156 181 171 171 199 196 193 182 173 159 143 183 121 4 104 82 77 26
212 151 159 159 96 112 232 120 245 153 184 193 189 177 183 289 217 197 187 191 186 181 189 177 185 175 164 180 181 157 156 157 152 141 143 176 192 205 222 182 160 152 170 136 142 114 73 65 68
161 81 54 59 89 6 209 159 225 189 219 185 180 175 186 282 325 209 180 158 179 176 186 167 165 197 169 167 185 180 167 169 153 146 161 180 160 191 196 127 154 152 153 160 177 115 88 79 71
77 81 46 45 53 212 297 136 257 287 213 189 178 177 189 188 333 153 178 181 177 169 182 177 170 179 182 165 176 180 180 186 185 178 168 167 160 187 193 166 173 173 190 177 180 126 99 72 72
188 157 151 160 179 216 86 217 266 338 337 185 172 179 165 177 197 160 107 193 182 167 172 194 177 169 172 175 187 185 182 173 191 187 189 179 184 196 172 181 179 180 199 197 168 142 107 95 70
185 193 187 102 36 94 203 273 227 99 77 132 175 163 166 179 206 174 201 359 192 170 180 175 168 163 180 181 167 165 187 189 207 202 193 196 184 190 195 195 189 186 186 194 178 184 148 108 65
157 167 91 19 133 196 228 236 233 168 149 140 151 165 171 177 194 187 189 192 347 194 169 163 155 173 158 160 169 169 177 196 191 187 219 201 195 187 187 200 201 196 192 185 177 189 203 183 206
346 352 51 111 113 153 165 251 292 170 159 152 168 158 162 168 192 215 209 165 98 22 145 152 155 152 144 153 164 163 168 185 190 177 214 251 207 198 211 198 217 207 200 182 187 188 191 219 211
320 104 122 134 213 107 150 247 314 169 148 164 165 157 129 125 143 144 160 206 171 132 126 126 121 108 102 116 87 46 61 221 208 188 190 211 230 239 211 190 221 223 200 194 201 202 193 199 219